Simultaneous Nadir Overpasses (SNOs) Predictions

Prediction of SNOs between GOES-15 and METOP-C Satellite Orbit:

Table of predicted SNOs for the next 14.0 days since TLE Epoch: 8/2/2022
Index Date Time (GOES-15) GOES-15 Lat,Lon METOP-C Lat,Lon Distance(km) Time Diff (sec)
1 08/02/2022 06:20:02 0.01,-127.96 -0.89,-131.88 447.45 80
2 08/03/2022 05:56:44 0.05,-127.93 0.30,-126.90 117.35 80
3 08/04/2022 18:18:15 0.00,-127.92 0.77,-131.46 402.63 80
4 08/05/2022 17:54:56 -0.03,-127.89 -0.36,-126.47 162.04 80
5 08/07/2022 06:16:33 -0.02,-127.79 -0.75,-131.04 370.81 80
6 08/08/2022 05:53:13 0.01,-127.74 0.39,-126.05 192.86 80
7 08/09/2022 18:14:45 0.04,-127.72 0.67,-130.61 328.96 80
8 08/10/2022 17:51:25 0.00,-127.68 -0.46,-125.62 234.71 80
9 08/12/2022 06:13:03 -0.05,-127.57 -0.65,-130.19 298.83 80
10 08/13/2022 05:49:43 -0.01,-127.53 0.48,-125.20 264.47 80
11 08/14/2022 18:11:14 0.06,-127.50 0.57,-129.76 257.73 80
12 08/15/2022 17:47:55 0.02,-127.46 -0.57,-124.77 306.00 80
